Regional Weather Roundup
Issued by NWS Cleveland, OH

Home | Current Version | Previous Version | Graphics & Text | Print | Product List | Glossary On
Versions: 1 2 3 4 5 6 7 8 9 10 11 12 13 14 15 16 17 18 19 20 21 22 23 24 25 26 27 28 29 30 31 32 33 34 35 36 37 38 39 40 41 42 43 44 45 46 47 48 49 50
000
ASUS41 KCLE 200702
RWRCLE
OHIO REGIONAL WEATHER ROUNDUP
NATIONAL WEATHER SERVICE CLEVELAND, OH
200 AM EST MON FEB 20 2017

NOTE: "FAIR" INDICATES FEW OR NO CLOUDS BELOW 12,000 FEET WITH NO
SIGNIFICANT WEATHER AND/OR OBSTRUCTIONS TO VISIBILITY.

OHZ001>008-015>018-024>027-034-035-043-044-200800-
   NORTHWEST OHIO

CITY           SKY/WX    TMP DP  RH WIND       PRES   REMARKS
DEFIANCE       PTCLDY    35  31  85 CALM      30.17S
FINDLAY        CLOUDY    41  32  70 S3        30.16S
TOLEDO EXPRESS MOCLDY    39  34  82 E5        30.17S
TOLEDO EXEC    CLOUDY    40  35  83 N6        30.19R
LIMA           CLOUDY    44  42  93 S5        30.17R
$$

OHZ009>014-019>023-028>033-038-089-200800-
   NORTHEAST OHIO

CITY           SKY/WX    TMP DP  RH WIND       PRES   REMARKS
CLE-HOPKINS    PTCLDY    40  32  73 CALM      30.19S
CLE-LAKEFRONT  CLEAR     44  34  67 CALM      30.16S
CUY CO. ARPT   NOT AVBL
LORAIN-ELYRIA  CLEAR     37  32  82 CALM      30.17S
ASHTABULA      CLEAR     32  30  92 CALM      30.18R
AKRON-CANTON   CLEAR     42  36  79 W3        30.17R
WOOSTER        FOG       37  36  96 CALM      30.17S VSB 1
MANSFIELD      CLOUDY    40  39  97 SW5       30.17R FOG
YOUNGSTOWN     PTCLDY    38  31  76 E3        30.16S
$$

OHZ042-051>053-060>062-070>072-077>081-200800-
  SOUTHWEST OHIO

CITY           SKY/WX    TMP DP  RH WIND       PRES   REMARKS
CINC-COVINGTON FOG       36  36 100 CALM      30.17S VSB 1/4
CINC-LUNKEN    FOG       36  36 100 CALM      30.20S VSB<1/4
HAMILTON       FOG       34  34 100 CALM      30.19S VSB 1/4
DAYTON         PTCLDY    40  39  97 S5        30.18F FOG
WRIGHT-PAT AFB PTCLDY    35  35 100 CALM      30.18S FOG
DAYTON GENERAL FOG       44  42  93 CALM      30.17F VSB 1/2
WILMINGTON     FOG       39  39 100 CALM      30.18S VSB 1/4
$$

OHZ036-037-039>041-045>050-054>059-063>069-073>076-082>088-200800-
  CENTRAL AND SOUTHEAST OHIO

CITY           SKY/WX    TMP DP  RH WIND       PRES   REMARKS
COLUMBUS       PTCLDY    41  38  89 SE3       30.18F FOG
OSU AIRPORT    FOG       37  37 100 CALM      30.18S VSB 1/4
BOLTON FIELD   CLOUDY    34  34 100 CALM      30.18F VSB<1/4
RICKENBACK AFB FOG       33  33 100 CALM      30.18F VSB 1/4
NEWARK         FOG       34  33  96 CALM      30.18F VSB 1/4
MARION         CLOUDY    39  38  96 S6        30.18S FOG
LANCASTER      FOG       33  32  96 CALM      30.19F VSB 1/4
ZANESVILLE     FOG       36  35  96 CALM      30.19R VSB 1/4
NEW PHILLY     NOT AVBL
$$




USA.gov is the U.S. government's official web portal to all federal, state and local government web resources and services.